Flag Weather past 2 weeks in Brussels, Belgium

Now
55 °F

Cool.


Feels Like: 54 °F
Forecast: 55 / 66 °F
Wind: 5 mph from South

Location: Uccle

Current Time: Oct 31, 2014 at 6:40:56 AM

Latest Report: Oct 31, 2014 at 6:00 AM


Visibility: N/A

Pressure: 30.17 "Hg

Humidity: 86%

Dew point: 51 °F

Location of BrusselsLocation

Historic Weather in Brussels — Graph

°F

Brussels temperature yesterday

Maximum temperature yesterday: 63 °F (at 3:00 PM)
Minimum temperature yesterday: 52 °F (at 6:00 AM)
Average temperature yesterday: 56 °F

Past Weeks' High & Low Weather Summary

 TemperatureHumidityPressure
High75 °F (Oct 18, 4:00 PM)96% (Oct 25, 10:00 AM)30.28 "Hg (Oct 25, 10:00 AM)
Low45 °F (Oct 22, 7:00 AM)57% (Oct 18, 4:00 PM)29.58 "Hg (Oct 21, 2:00 PM)
Average55 °F84%30.06 "Hg
* Reported Oct 16 6:00 AM — Oct 31 5:00 AM, Brussels, Weather by CustomWeather, © 2014

Note: Actual official high and low records may vary slightly from our data, if they occured in-between our weather recording intervals... More about our weather records

Advertising

Brussels weather history for previous 24 hours

 ConditionsComfort  
Time TempWeatherWind HumidityBarometerVisibility
5:00 AM
Oct 31
55 °FCool.6 mph86%30.17 "HgN/A
4:00 AM55 °FCool.5 mph88%30.18 "HgN/A
3:00 AM55 °FCool.5 mph88%30.19 "HgN/A
2:00 AM56 °FCool.6 mph88%30.19 "HgN/A
1:00 AM56 °FCool.6 mph91%30.19 "HgN/A
12:00 AM56 °FCool.5 mph91%30.20 "HgN/A
11:00 PM
Oct 30
56 °FCool.6 mph91%30.19 "HgN/A
10:00 PM57 °FCool.5 mph90%30.20 "HgN/A
9:00 PM57 °FCool.6 mph89%30.19 "HgN/A
8:00 PM59 °FCool.5 mph87%30.20 "HgN/A
7:00 PM59 °FCool.6 mph87%30.19 "HgN/A
6:00 PM58 °FCool.3 mph89%30.19 "HgN/A
5:00 PM60 °FCool.3 mph83%30.18 "HgN/A
4:00 PM63 °FMild.3 mph79%30.18 "HgN/A
3:00 PM63 °FMild.5 mph76%30.18 "HgN/A
2:00 PM61 °FCool.5 mph85%30.18 "HgN/A
1:00 PM58 °FCool.5 mph90%30.19 "HgN/A
12:00 PM57 °FCool.3 mph92%30.20 "HgN/A
11:00 AM56 °FCool.2 mph94%30.19 "HgN/A
10:00 AM54 °FCool.3 mph95%30.19 "HgN/A
9:00 AM53 °FCool.3 mph95%30.18 "HgN/A
8:00 AM52 °FCool.2 mph95%30.17 "HgN/A
7:00 AM52 °FCool.2 mph96%30.16 "HgN/A
6:00 AM52 °FCool.2 mph96%30.16 "HgN/A
Weather by CustomWeather, © 2014

See weather overviewHow to use our weather pages